Powrót do katalogu

PAYA

AktywnyNaukaSSO
NORAD 67255·PAYLOAD·🇮🇷 Iran
Ta nazwa satelity nie została jeszcze potwierdzona przez oficjalne źródła.

Wystrzelony Dec 28, 2025 z Vostochny Cosmodrome

Loading…

Następne Przeloty (najbliższe 24 godziny)

TLE

ŚwieżeSource: Space-Track

Epoka: Sep 14, 2026, 09:39 UTC

1 67255U 25313H   26257.40218468  .00001793  00000-0  11604-3 0  9999
2 67255  97.2771 320.5775 0068887  28.7476 331.7521 15.07445064 39099

Śledź PAYA w czasie rzeczywistym z AllMySat

Download on the App Store